Lansing, MI

10:00 PM EST on November 20, 2017 (GMT -0500)
Capital City

Weather History for KLAN - November, 2013

Change the Weather History Date:

Thursday, November 14, 2013

  Actual Average Record
Temperature  
Mean Temperature 40 °F 40 °F  
Max Temperature 49 °F 48 °F 69 °F (1909)
Min Temperature 31 °F 33 °F 4 °F (1873)
Degree Days  
Heating Degree Days 25 25  
Month to date heating degree days 342 312  
Since 1 July heating degree days 944 962  
Cooling Degree Days 0 0  
Month to date cooling degree days 0 0  
Year to date cooling degree days 661 625  
Moisture  
Dew Point 20 °F    
Average Humidity 48    
Maximum Humidity 58    
Minimum Humidity 37    
Precipitation  
Precipitation 0.00 in 0.10 in 1.01 in (1957)
Month to date precipitation 1.08 1.32  
Year to date precipitation 38.53 28.44  
Snow  
Snow 0.00 in 0.00 in 3.50 in (1864)
Month to date snowfall 0.4 0.8  
Since 1 July snowfall 0.4 1.2  
Since 1 September snowfall 0.4 1.2  
Snow Depth 0.00 in    
Sea Level Pressure  
Sea Level Pressure 30.05 in    
Wind  
Wind Speed 15 mph (SW)    
Max Wind Speed 24 mph    
Max Gust Speed 30 mph    
Visibility 10 miles    
Events      
T = Trace of Precipitation, MM = Missing Value Source: NWS Daily Summary

Daily Weather History Graph

Daily Weather History Graph

Search for Another Location

Airport or City:

Trip Planner

Search our weather history database for the weather conditions in past years. The results will help you decide how hot, cold, wet, or windy it might be!

Date:

Astronomy

Nov. 14, 2013 Rise Set
Actual Time 7:29 AM EST 5:15 PM EST
Civil Twilight 6:58 AM EST 5:46 PM EST
Nautical Twilight 6:24 AM EST 6:20 PM EST
Astronomical Twilight 5:51 AM EST 6:53 PM EST
Moon 3:40 PM EST (11/14) 4:19 AM EST (11/14)
Length of Visible Light 10h 47m
Length of Day
9h 46m
Waxing Gibbous, 91% of the Moon is Illuminated
Nov 14
Waxing Gibbous
Nov 17
Full
Nov 25
Last Quarter
Dec 2
New
Dec 9
First Quarter

Hourly Weather History & Observations

Time (EST) Temp. Windchill Dew Point Humidity Pressure Visibility Wind Dir Wind Speed Gust Speed Precip Events Conditions
12:53 AM 30.9 °F 20.7 °F 17.1 °F 57% 30.16 in 10.0 mi SW 13.8 mph 25.3 mph N/A   Clear
1:53 AM 30.9 °F 19.8 °F 17.1 °F 57% 30.15 in 10.0 mi SW 16.1 mph 24.2 mph N/A   Clear
2:53 AM 30.9 °F 20.7 °F 17.1 °F 57% 30.14 in 10.0 mi SW 13.8 mph - N/A   Clear
3:53 AM 32.0 °F 20.8 °F 17.1 °F 54% 30.13 in 10.0 mi SW 17.3 mph 25.3 mph N/A   Clear
4:53 AM 32.0 °F 21.2 °F 17.1 °F 54% 30.12 in 10.0 mi SW 16.1 mph - N/A   Clear
5:53 AM 30.9 °F 19.8 °F 17.1 °F 57% 30.10 in 10.0 mi SW 16.1 mph 26.5 mph N/A   Clear
6:53 AM 30.9 °F 20.2 °F 17.1 °F 57% 30.09 in 10.0 mi SW 15.0 mph - N/A   Clear
7:53 AM 32.0 °F 22.5 °F 18.0 °F 56% 30.09 in 10.0 mi SW 12.7 mph 24.2 mph N/A   Clear
8:53 AM 34.0 °F 23.0 °F 18.0 °F 52% 30.10 in 10.0 mi SW 18.4 mph 24.2 mph N/A   Clear
9:53 AM 37.0 °F 28.9 °F 19.0 °F 48% 30.09 in 10.0 mi SW 12.7 mph 24.2 mph N/A   Clear
10:53 AM 41.0 °F 32.8 °F 21.0 °F 45% 30.07 in 10.0 mi SW 16.1 mph 27.6 mph N/A   Clear
11:53 AM 43.0 °F 35.1 °F 21.0 °F 42% 30.06 in 10.0 mi WSW 17.3 mph - N/A   Clear
12:53 PM 46.0 °F 39.6 °F 23.0 °F 40% 30.02 in 10.0 mi WSW 15.0 mph 21.9 mph N/A   Clear
1:53 PM 46.9 °F - 24.1 °F 41% 30.00 in 10.0 mi SSW 15.0 mph 25.3 mph N/A   Clear
2:53 PM 48.0 °F - 24.1 °F 39% 29.97 in 10.0 mi SSW 20.7 mph 28.8 mph N/A   Clear
3:53 PM 48.9 °F - 24.1 °F 38% 29.96 in 10.0 mi SSW 16.1 mph 28.8 mph N/A   Clear
4:53 PM 46.9 °F - 24.1 °F 41% 29.96 in 10.0 mi SW 11.5 mph 19.6 mph N/A   Clear
5:53 PM 45.0 °F 39.3 °F 23.0 °F 42% 29.97 in 10.0 mi SW 11.5 mph - N/A   Clear
6:53 PM 46.0 °F 39.6 °F 21.0 °F 37% 29.98 in 10.0 mi SW 15.0 mph 20.7 mph N/A   Clear
7:53 PM 44.1 °F 37.7 °F 19.9 °F 38% 30.01 in 10.0 mi SW 12.7 mph - N/A   Clear
8:53 PM 43.0 °F 36.8 °F 19.9 °F 40% 30.00 in 10.0 mi SSW 11.5 mph - N/A   Clear
9:53 PM 43.0 °F 36.4 °F 21.0 °F 42% 30.00 in 10.0 mi SW 12.7 mph - N/A   Clear
10:53 PM 42.1 °F 35.2 °F 21.0 °F 43% 30.00 in 10.0 mi SW 12.7 mph - N/A   Clear
11:53 PM 42.1 °F 34.9 °F 21.9 °F 45% 30.00 in 10.0 mi SW 13.8 mph - N/A   Clear